This is the latest recevied weather packets stored in our database for station/object KB4MLW-13. If no packets are shown the sender has not sent any weather packets the latest 10 day(s).
| Time | Temp. | Humidity | Pressure | Rain* | Wind** | Luminosity | Snow |
|---|---|---|---|---|---|---|---|
| 1788209878 | 34.44° C | 58% | 1001.1 hPa | 0 mm | - | - | - |
| 1788209818 | 34.44° C | 56% | 1001.1 hPa | 0 mm | - | - | - |
| 1788209758 | 33.89° C | 58% | 1001.3 hPa | 0 mm | - | - | - |
| 1788209668 | 33.89° C | 58% | 1001.2 hPa | 0 mm | - | - | - |
| 1788209579 | 33.89° C | 57% | 1001.2 hPa | 0 mm | - | - | - |
| 1788209518 | 33.89° C | 56% | 1001.2 hPa | 0 mm | - | - | - |
| 1788209458 | 33.89° C | 58% | 1001.4 hPa | 0 mm | - | - | - |
| 1788209398 | 33.89° C | 57% | 1001 hPa | 0 mm | - | - | - |
| 1788209338 | 33.89° C | 58% | 1001.3 hPa | 0 mm | - | - | - |
| 1788209278 | 33.89° C | 58% | 1001.4 hPa | 0 mm | - | - | - |
| 1788209218 | 33.89° C | 57% | 1001.1 hPa | 0 mm | - | - | - |
| 1788209158 | 33.89° C | 57% | 1001.2 hPa | 0 mm | - | - | - |
| 1788209068 | 33.89° C | 56% | 1001.1 hPa | 0 mm | - | - | - |
| 1788209008 | 34.44° C | 58% | 1001.2 hPa | 0 mm | - | - | - |
| 1788208948 | 34.44° C | 58% | 1001.2 hPa | 0 mm | - | - | - |
| 1788208888 | 34.44° C | 55% | 1001.3 hPa | 0 mm | - | - | - |
| 1788208799 | 34.44° C | 55% | 1001.2 hPa | 0 mm | - | - | - |
| 1788208708 | 34.44° C | 55% | 1001.2 hPa | 0 mm | - | - | - |
| 1788208648 | 34.44° C | 57% | 1001.2 hPa | 0 mm | - | - | - |
| 1788208558 | 33.89° C | 56% | 1001.4 hPa | 0 mm | - | - | - |
| 1788208498 | 33.89° C | 56% | 1001 hPa | 0 mm | - | - | - |
| 1788208438 | 34.44° C | 58% | 1001.1 hPa | 0 mm | - | - | - |
| 1788208378 | 34.44° C | 59% | 1001.3 hPa | 0 mm | - | - | - |
| 1788208289 | 34.44° C | 60% | 1001 hPa | 0 mm | - | - | - |
| 1788208228 | 33.89° C | 57% | 1001.3 hPa | 0 mm | - | - | - |
* Rain latest hour (hover to see other rain measurements)
** Current wind speed in m/s (hover to see current wind gust speed)